Regional Weather Roundup
Issued by NWS

Home | Current Version | Previous Version | Text Only | Print | Product List | Glossary Off
Versions: 1 2 3 4 5 6 7 8 9 10 11 12 13 14 15 16 17 18 19 20 21 22 23 24 25 26 27 28 29 30 31 32 33 34 35 36 37 38 39 40 41 42 43 44 45 46 47 48 49 50

000
ASUS44 KMEG 281910
RWRTN
TENNESSEE HOURLY STATE WEATHER ROUNDUP
NATIONAL WEATHER SERVICE MEMPHIS TN
200 PM CDT SAT MAY 28 2016

TNZ002-004-019-021-049-052-054-088>092-282000-
WEST TENNESSEE

CITY           SKY/WX    TMP DP  RH WIND       PRES   REMARKS
MEMPHIS INTL   PTSUNNY   84  67  56 S10       30.01F
NWS MEMPHIS      N/A     83 N/A N/A MISG        N/A
JACKSON        MOSUNNY   85  68  56 SW9       30.03S
DYERSBURG      CLOUDY    84  68  58 S8        30.01S
UNION CITY     MOSUNNY   81  72  74 S9        30.01S
PARIS          SUNNY     82  66  57 S7        30.04F
LEXINGTON      MOSUNNY   84  63  48 S12       30.04S
$$

TNZ008-025-027-028-033-062-065-066-282000-
NORTH MIDDLE TENNESSEE

CITY           SKY/WX    TMP DP  RH WIND       PRES   REMARKS
NASHVILLE      CLOUDY    80  63  55 S10       30.09S
CLARKSVILLE    CLOUDY    79  64  60 S8        30.05S
SMYRNA         MOSUNNY   79  65  62 S7        30.11S
COOKEVILLE     MOSUNNY   86  63  45 SW6       30.10F
CROSSVILLE     PTSUNNY   79  59  50 SE6       30.16F
$$

TNZ061-075-076-078-094-096-097-282000-
SOUTH MIDDLE TENNESSEE

CITY           SKY/WX    TMP DP  RH WIND       PRES   REMARKS
FAYETTEVILLE   SUNNY     75  66  73 SE8       30.12S
TULLAHOMA      PTSUNNY   73  72  94 SW3       30.14S
WINCHESTER     SUNNY     77  64  65 SW3       30.12S
MCMINNVILLE    SUNNY     79  63  57 W9        30.12S
COLUMBIA       SUNNY     82  70  65 SE8       30.07S
SHELBYVILLE    CLOUDY    75  70  83 SE6       30.13S
$$

TNZ017-018-042-046-047-282000-
NORTHEAST TENNESSEE

CITY           SKY/WX    TMP DP  RH WIND       PRES   REMARKS
TRI CITIES     PTSUNNY   84  53  34 CALM      30.15F
$$

TNZ012-013-036-069-073-074-282000-
CENTRAL EAST TENNESSEE

CITY           SKY/WX    TMP DP  RH WIND       PRES   REMARKS
KNOXVILLE      MOSUNNY   82  62  50 NE6       30.12F
OAK RIDGE      PTSUNNY   83  61  47 S3        30.14F
GATLINBURG       N/A     82  61  47 N5        30.12F
$$

TNZ083-085-099-282000-
SOUTHEAST TENNESSEE

CITY           SKY/WX    TMP DP  RH WIND       PRES   REMARKS
CHATTANOOGA    PTSUNNY   87  56  34 E9        30.10F
$$

SKY/WX REPORTED AS FAIR MEANS FEW OR NO CLOUDS BELOW
12 THOUSAND FEET.





USA.gov is the U.S. government's official web portal to all federal, state and local government web resources and services.